Content
SEND FEEDBACK

Daily
Averages
Monthly
Summary
Denmark

ESBJERG, DENMARK


Home > Europe > Denmark
Elevation: 95 feet     Latitude: 55 31N     Longitude: 008 33E

WEATHER
 
SELECT A DAY
Number of Records: 253,025;   Date Range: 7/1/96 - 9/29/14
 
SHARE

PRINT THIS DATA

[ ← Previous Day ]
WEATHER ALMANAC - JANUARY 23, 2013
[ Next Day → ]
[ °C ]   °F
Weather ElementAverageHighLow
Temperature22.9 °F28.4 °F (1:50 am) (7:20 am)
Dewpoint17.7 °F23 °F (12:50 am) (7:00 pm)
Humidity78.1 %86 % (12:50 am)69 % (4:20 pm)
Barometer29.95 in29.98 in (5:50 pm)29.92 in (12:50 am)
Wind Speed7.8 mph12.7 mph (12:50 pm)
Weather ElementAverage
Visibility6.2 mi
Wind DirectionENE (58.9 °)

Weather ElementTotal
Precipitation---
Heating Degree Days50.8 (Base 65)
Averaged from 47 records on January 23, 2013
WEATHER CONDITIONS BREAKOUT
WIND DIRECTION BREAKOUT
WEATHER BY HOUR - JANUARY 23, 2013
[ °C ]   °F
Local TimeTemperatureDewpointHumidityBarometerVisibilityWind DirectionWind SpeedGust SpeedPrecipitationEventsConditions
12:50 AM26.6 °F23.0 °F86 %29.92 in6.2 miNE (50°)6.9 mphOvercast
1:20 AM26.6 °F23.0 °F86 %29.92 in6.2 miNE (50°)6.9 mphOvercast
1:50 AM28.4 °F23.0 °F80 %29.92 in6.2 miENE (60°)8.1 mphOvercast
2:20 AM28.4 °F23.0 °F80 %29.92 in6.2 miENE (60°)8.1 mphOvercast
2:50 AM28.4 °F23.0 °F80 %29.92 in6.2 miENE (70°)9.2 mphOvercast
3:20 AM26.6 °F21.2 °F80 %29.92 in6.2 miENE (60°)8.1 mphMostly Cloudy
3:50 AM26.6 °F21.2 °F80 %29.92 in6.2 miENE (60°)6.9 mphMostly Cloudy
4:20 AM26.6 °F21.2 °F80 %29.92 in6.2 miNE (40°)6.9 mphMostly Cloudy
4:50 AM26.6 °F21.2 °F80 %29.92 in6.2 miNE (50°)6.9 mphMostly Cloudy
5:20 AM26.6 °F21.2 °F80 %29.92 in6.2 miNE (40°)8.1 mphOvercast
5:50 AM24.8 °F21.2 °F86 %29.92 in6.2 miNE (40°)6.9 mphMostly Cloudy
6:20 AM26.6 °F21.2 °F80 %29.92 in6.2 miNE (50°)8.1 mphOvercast
6:50 AM26.6 °F21.2 °F80 %29.92 in6.2 miNE (50°)8.1 mphOvercast
7:20 AM0.0 °F0.0 °F29.92 in6.2 miNE (50°)8.1 mphOvercast
7:50 AM26.6 °F21.2 °F80 %29.92 in6.2 miNE (40°)8.1 mphOvercast
8:20 AM0.0 °F0.0 °F29.92 in6.2 miNE (50°)6.9 mphOvercast
8:50 AM26.6 °F21.2 °F80 %29.95 in6.2 miNE (40°)8.1 mphOvercast
9:20 AM26.6 °F21.2 °F80 %29.95 in6.2 miNE (40°)6.9 mphOvercast
9:50 AM26.6 °F21.2 °F80 %29.95 in6.2 miNE (50°)8.1 mphOvercast
10:20 AM26.6 °F21.2 °F80 %29.95 in6.2 miNE (50°)9.2 mphMostly Cloudy
10:50 AM26.6 °F21.2 °F80 %29.95 in6.2 miNE (50°)9.2 mphMostly Cloudy
11:20 AM26.6 °F21.2 °F80 %29.95 in6.2 miENE (60°)10.4 mphMostly Cloudy
11:50 AM28.4 °F21.2 °F74 %29.95 in6.2 miENE (60°)10.4 mphMostly Cloudy
12:20 PM28.4 °F21.2 °F74 %29.95 in6.2 miENE (70°)10.4 mphMostly Cloudy
12:50 PM28.4 °F21.2 °F74 %29.95 in6.2 miENE (60°)12.7 mphMostly Cloudy
1:20 PM28.4 °F21.2 °F74 %29.95 in6.2 miENE (60°)10.4 mphMostly Cloudy
1:50 PM26.6 °F21.2 °F80 %29.95 in6.2 miENE (70°)9.2 mphMostly Cloudy
2:20 PM28.4 °F21.2 °F74 %29.95 in6.2 miENE (70°)11.5 mphMostly Cloudy
2:50 PM26.6 °F21.2 °F80 %29.95 in6.2 miENE (70°)9.2 mphMostly Cloudy
3:20 PM26.6 °F21.2 °F80 %29.95 in6.2 miENE (60°)8.1 mphOvercast
3:50 PM26.6 °F19.4 °F74 %29.95 in6.2 miENE (60°)8.1 mphOvercast
4:20 PM26.6 °F17.6 °F69 %29.95 in6.2 miENE (60°)8.1 mphOvercast
4:50 PM0.0 °F0.0 °F29.95 in6.2 miENE (60°)9.2 mphOvercast
5:20 PM24.8 °F17.6 °F74 %29.95 in6.2 miNE (50°)6.9 mphOvercast
5:50 PM24.8 °F17.6 °F74 %29.98 in6.2 miENE (60°)8.1 mphOvercast
6:20 PM24.8 °F17.6 °F74 %29.98 in6.2 miENE (60°)6.9 mphOvercast
6:50 PM24.8 °F17.6 °F74 %29.98 in6.2 miENE (60°)8.1 mphOvercast
7:20 PM24.8 °F17.6 °F74 %29.98 in6.2 miENE (60°)6.9 mphOvercast
7:50 PM24.8 °F17.6 °F74 %29.98 in6.2 miNE (50°)6.9 mphOvercast
8:20 PM0.0 °F0.0 °F29.98 in6.2 miENE (70°)8.1 mphOvercast
8:50 PM23.0 °F15.8 °F74 %29.98 in6.2 miEast (80°)6.9 mphOvercast
9:20 PM0.0 °F0.0 °F29.98 in6.2 miENE (70°)5.8 mphOvercast
9:50 PM23.0 °F15.8 °F74 %29.98 in6.2 miESE (110°)4.6 mphOvercast
10:20 PM0.0 °F0.0 °F29.98 in6.2 miEast (80°)5.8 mphOvercast
10:50 PM23.0 °F17.6 °F80 %29.98 in6.2 miENE (70°)3.5 mphOvercast
11:20 PM23.0 °F17.6 °F80 %29.98 in6.2 miENE (70°)4.6 mphOvercast
11:50 PM23.0 °F17.6 °F80 %29.98 in6.2 miENE (70°)3.5 mphOvercast
Hourly data recorded from EKEB, located miles away from Esbjerg, Denmark







STORIES FROM OUR PARTNERS